�������l�o���
Date,Time,MP-1(��Sv/h),MP-2(��Sv/h),MP-3(��Sv/h),MP-4(��Sv/h),MP-5(��Sv/h),MP-6(��Sv/h),MP-7(��Sv/h),MP-8(��Sv/h),����,����(m/s),���J
2022/11/01,00:00,0.582,0.834,0.525,1.055,0.739,0.337,0.591,0.557,�k��,4.9,��
2022/11/01,00:10,0.580,0.832,0.526,1.054,0.739,0.335,0.591,0.558,�k�k��,5.3,��
2022/11/01,00:20,0.580,0.834,0.526,1.055,0.739,0.336,0.591,0.557,�k��,4.9,��
2022/11/01,00:30,0.581,0.833,0.526,1.053,0.739,0.335,0.593,0.557,�k��,5.4,��
2022/11/01,00:40,0.580,0.834,0.524,1.053,0.739,0.336,0.590,0.556,�k�k��,5.3,��
2022/11/01,00:50,0.581,0.836,0.526,1.055,0.742,0.336,0.593,0.558,�k�k��,5.3,��
2022/11/01,01:00,0.579,0.835,0.526,1.056,0.740,0.338,0.593,0.558,�k�k��,5.3,��
2022/11/01,01:10,0.581,0.833,0.524,1.057,0.737,0.337,0.592,0.557,�k�k��,5.8,��
2022/11/01,01:20,0.581,0.833,0.525,1.054,0.740,0.336,0.592,0.556,�k�k��,6.2,��
2022/11/01,01:30,0.581,0.833,0.526,1.056,0.739,0.336,0.592,0.557,�k�k��,5.9,��
2022/11/01,01:40,0.580,0.836,0.525,1.055,0.739,0.336,0.592,0.556,�k��,5.3,��
2022/11/01,01:50,0.579,0.834,0.525,1.054,0.739,0.335,0.594,0.557,�k��,5.1,��
2022/11/01,02:00,0.579,0.833,0.527,1.055,0.738,0.335,0.592,0.558,�k�k��,5.4,��
2022/11/01,02:10,0.580,0.833,0.526,1.054,0.739,0.337,0.592,0.557,�k�k��,5.8,��
2022/11/01,02:20,0.580,0.832,0.525,1.055,0.739,0.336,0.593,0.558,�k�k��,6.1,��
2022/11/01,02:30,0.580,0.832,0.526,1.056,0.742,0.336,0.595,0.557,�k�k��,5.8,��
2022/11/01,02:40,0.580,0.835,0.525,1.056,0.738,0.338,0.592,0.555,�k��,5.5,��
2022/11/01,02:50,0.579,0.833,0.526,1.054,0.739,0.336,0.592,0.557,�k��,5.2,��
2022/11/01,03:00,0.579,0.833,0.526,1.056,0.740,0.336,0.592,0.558,�k��,5.6,��
2022/11/01,03:10,0.579,0.834,0.527,1.056,0.739,0.336,0.592,0.558,�k�k��,5.1,��
2022/11/01,03:20,0.578,0.833,0.526,1.054,0.740,0.337,0.594,0.558,�k�k��,4.9,��
2022/11/01,03:30,0.579,0.832,0.527,1.056,0.737,0.335,0.593,0.559,�k�k��,4.7,��
2022/11/01,03:40,0.580,0.834,0.524,1.054,0.739,0.337,0.593,0.557,�k�k��,4.8,��
2022/11/01,03:50,0.581,0.833,0.525,1.054,0.740,0.338,0.591,0.557,�k�k��,4.9,��
2022/11/01,04:00,0.580,0.831,0.524,1.053,0.739,0.335,0.593,0.555,�k��,5.3,��
2022/11/01,04:10,0.582,0.833,0.526,1.056,0.739,0.336,0.591,0.556,�k��,6.2,��
2022/11/01,04:20,0.579,0.834,0.524,1.055,0.737,0.337,0.592,0.556,�k�k��,5.6,��
2022/11/01,04:30,0.580,0.836,0.524,1.057,0.738,0.337,0.594,0.557,�k�k��,5.8,��
2022/11/01,04:40,0.579,0.833,0.524,1.053,0.739,0.336,0.594,0.559,�k�k��,5.4,��
2022/11/01,04:50,0.579,0.833,0.525,1.055,0.739,0.337,0.594,0.557,�k�k��,5.5,��
2022/11/01,05:00,0.579,0.832,0.524,1.054,0.738,0.337,0.593,0.557,�k�k��,5.4,��
2022/11/01,05:10,0.579,0.834,0.526,1.055,0.738,0.335,0.593,0.558,�k�k��,5.0,��
2022/11/01,05:20,0.579,0.832,0.526,1.056,0.739,0.337,0.594,0.559,�k�k��,4.0,��
2022/11/01,05:30,0.580,0.836,0.526,1.053,0.739,0.336,0.593,0.557,�k�k��,4.2,��
2022/11/01,05:40,0.579,0.833,0.525,1.054,0.738,0.336,0.593,0.556,�k�k��,4.3,��
2022/11/01,05:50,0.579,0.831,0.525,1.053,0.740,0.336,0.591,0.557,�k��,4.9,��
2022/11/01,06:00,0.578,0.832,0.525,1.053,0.738,0.336,0.593,0.559,�k��,4.9,��
2022/11/01,06:10,0.579,0.832,0.524,1.055,0.740,0.336,0.593,0.558,�k��,5.1,��
2022/11/01,06:20,0.582,0.833,0.525,1.055,0.740,0.336,0.593,0.557,�k��,5.0,��
2022/11/01,06:30,0.579,0.832,0.526,1.055,0.740,0.336,0.592,0.557,�k��,5.6,��
2022/11/01,06:40,0.580,0.833,0.524,1.053,0.738,0.336,0.592,0.558,�k��,5.2,��
2022/11/01,06:50,0.579,0.832,0.524,1.054,0.741,0.335,0.592,0.558,�k��,5.2,��
2022/11/01,07:00,0.580,0.833,0.524,1.058,0.738,0.336,0.592,0.558,�k��,4.5,��
2022/11/01,07:10,0.581,0.832,0.523,1.054,0.738,0.336,0.593,0.556,�k��,4.5,��
2022/11/01,07:20,0.582,0.833,0.526,1.054,0.739,0.336,0.593,0.557,�k��,5.1,��
2022/11/01,07:30,0.579,0.833,0.525,1.056,0.739,0.335,0.593,0.556,�k��,4.6,��
2022/11/01,07:40,0.579,0.832,0.523,1.055,0.737,0.336,0.592,0.556,�k��,4.1,��
2022/11/01,07:50,0.580,0.831,0.524,1.056,0.740,0.336,0.593,0.557,�k��,3.7,��
2022/11/01,08:00,0.582,0.833,0.524,1.056,0.739,0.335,0.595,0.558,�k��,3.2,��
2022/11/01,08:10,0.580,0.834,0.525,1.055,0.740,0.336,0.594,0.560,�k�k��,3.6,��
2022/11/01,08:20,0.583,0.835,0.525,1.055,0.740,0.335,0.593,0.558,�k�k��,3.1,��
2022/11/01,08:30,0.583,0.832,0.525,1.057,0.740,0.335,0.592,0.558,�k�k��,3.9,��
2022/11/01,08:40,0.581,0.830,0.525,1.055,0.739,0.335,0.592,0.559,�k�k��,3.3,��
2022/11/01,08:50,0.581,0.829,0.526,1.057,0.740,0.336,0.592,0.559,�k��,3.2,��
2022/11/01,09:00,0.582,0.830,0.525,1.055,0.740,0.336,0.593,0.560,�k�k��,3.1,��
2022/11/01,09:10,0.580,0.830,0.526,1.054,0.738,0.336,0.592,0.559,�k�k��,3.3,��
2022/11/01,09:20,0.580,0.831,0.526,1.057,0.740,0.336,0.592,0.558,�k�k��,2.8,��
2022/11/01,09:30,0.581,0.831,0.528,1.057,0.739,0.335,0.592,0.559,�k�k��,3.1,��
2022/11/01,09:40,0.581,0.831,0.528,1.055,0.740,0.335,0.593,0.559,�k,2.9,��
2022/11/01,09:50,0.582,0.832,0.527,1.056,0.738,0.335,0.591,0.559,�k�k��,2.3,��
2022/11/01,10:00,0.582,0.831,0.526,1.056,0.740,0.336,0.592,0.558,�k�k��,3.1,��
2022/11/01,10:10,0.582,0.830,0.527,1.055,0.741,0.336,0.594,0.559,�k,2.0,��
2022/11/01,10:20,0.581,0.830,0.526,1.054,0.739,0.334,0.593,0.561,�k,2.6,��
2022/11/01,10:30,0.581,0.830,0.527,1.057,0.740,0.334,0.593,0.557,�k,2.3,��
2022/11/01,10:40,0.580,0.832,0.527,1.055,0.740,0.335,0.591,0.557,�k,2.6,��
2022/11/01,10:50,0.580,0.831,0.525,1.056,0.739,0.335,0.591,0.559,�k,2.9,��
2022/11/01,11:00,0.580,0.830,0.526,1.057,0.741,0.335,0.591,0.557,�k,2.8,��
2022/11/01,11:10,0.582,0.831,0.526,1.056,0.741,0.337,0.592,0.557,�k,1.5,��
2022/11/01,11:20,0.578,0.832,0.529,1.057,0.738,0.336,0.591,0.559,�k,2.3,��
2022/11/01,11:30,0.580,0.831,0.527,1.056,0.739,0.336,0.593,0.558,�k,2.8,�L
2022/11/01,11:40,0.581,0.832,0.526,1.057,0.740,0.335,0.591,0.559,�k�k��,2.6,�L
2022/11/01,11:50,0.580,0.832,0.529,1.057,0.738,0.335,0.594,0.555,�k�k��,2.3,�L
2022/11/01,12:00,0.580,0.834,0.526,1.056,0.738,0.335,0.591,0.557,�k�k��,2.5,��
2022/11/01,12:10,0.580,0.834,0.526,1.056,0.738,0.335,0.591,0.556,�k,2.2,��
2022/11/01,12:20,0.581,0.834,0.527,1.055,0.739,0.335,0.592,0.558,�k�k��,2.0,��
2022/11/01,12:30,0.581,0.833,0.527,1.055,0.739,0.336,0.592,0.557,�k�k��,1.5,��
2022/11/01,12:40,0.581,0.833,0.527,1.056,0.740,0.335,0.592,0.558,�k,1.4,��
2022/11/01,12:50,0.582,0.832,0.526,1.056,0.739,0.336,0.592,0.557,�k,1.7,��
2022/11/01,13:00,0.581,0.833,0.527,1.056,0.739,0.336,0.592,0.557,�k,1.5,��
2022/11/01,13:10,0.581,0.833,0.525,1.057,0.740,0.337,0.592,0.558,�k,1.9,��
2022/11/01,13:20,0.582,0.832,0.528,1.055,0.738,0.335,0.591,0.558,�k,1.1,��
2022/11/01,13:30,0.582,0.832,0.525,1.055,0.739,0.336,0.593,0.558,�k,1.4,��
2022/11/01,13:40,0.580,0.833,0.528,1.056,0.741,0.336,0.592,0.557,-,CALM,��
2022/11/01,13:50,0.581,0.831,0.527,1.053,0.741,0.336,0.590,0.556,�k,0.8,��
2022/11/01,14:00,0.581,0.834,0.527,1.056,0.740,0.336,0.592,0.557,�k,0.9,��
2022/11/01,14:10,0.581,0.832,0.527,1.056,0.741,0.336,0.591,0.559,�k��,2.0,��
2022/11/01,14:20,0.582,0.833,0.527,1.056,0.740,0.336,0.593,0.556,�k�k��,2.6,��
2022/11/01,14:30,0.582,0.834,0.526,1.057,0.738,0.338,0.591,0.558,�k�k��,2.2,��
2022/11/01,14:40,0.582,0.832,0.526,1.057,0.740,0.337,0.593,0.557,�k�k��,1.7,��
2022/11/01,14:50,0.582,0.832,0.526,1.057,0.738,0.337,0.591,0.558,�k�k��,1.2,��
2022/11/01,15:00,0.581,0.834,0.527,1.057,0.737,0.337,0.592,0.556,�k,1.2,��
2022/11/01,15:10,0.581,0.833,0.524,1.055,0.739,0.337,0.591,0.558,�k,0.6,��
2022/11/01,15:20,0.579,0.832,0.526,1.056,0.740,0.337,0.591,0.559,�k,1.2,��
2022/11/01,15:30,0.583,0.834,0.527,1.055,0.741,0.337,0.593,0.557,�k�k��,1.5,��
2022/11/01,15:40,0.581,0.835,0.527,1.057,0.743,0.337,0.591,0.558,�k�k��,1.2,��
2022/11/01,15:50,0.581,0.837,0.527,1.055,0.742,0.338,0.590,0.557,�k,1.2,��
2022/11/01,16:00,0.582,0.837,0.527,1.059,0.742,0.339,0.592,0.560,�k,1.2,��
2022/11/01,16:10,0.583,0.837,0.526,1.056,0.742,0.339,0.592,0.558,�k�k��,0.9,��
2022/11/01,16:20,0.584,0.837,0.526,1.057,0.741,0.338,0.592,0.560,�k,0.8,��
2022/11/01,16:30,0.583,0.837,0.528,1.058,0.743,0.338,0.592,0.559,�k�k��,1.4,��
2022/11/01,16:40,0.587,0.836,0.527,1.056,0.743,0.338,0.591,0.560,�k�k��,0.9,��
2022/11/01,16:50,0.587,0.836,0.527,1.058,0.742,0.338,0.592,0.560,�k�k��,1.1,��
2022/11/01,17:00,0.586,0.837,0.527,1.055,0.741,0.339,0.591,0.559,�k�k��,0.9,��
2022/11/01,17:10,0.587,0.838,0.527,1.057,0.743,0.338,0.593,0.559,�k,1.2,��
2022/11/01,17:20,0.587,0.836,0.528,1.057,0.742,0.338,0.593,0.558,�k�k��,1.2,��
2022/11/01,17:30,0.586,0.838,0.527,1.055,0.743,0.339,0.595,0.559,�k,1.7,��
2022/11/01,17:40,0.587,0.838,0.527,1.058,0.741,0.337,0.592,0.558,�k�k��,1.4,��
2022/11/01,17:50,0.585,0.836,0.528,1.057,0.743,0.338,0.592,0.559,�k�k��,0.9,��
2022/11/01,18:00,0.586,0.836,0.528,1.057,0.742,0.338,0.593,0.559,�k,1.5,��
2022/11/01,18:10,0.584,0.837,0.529,1.056,0.743,0.338,0.593,0.559,�k,1.1,��
2022/11/01,18:20,0.586,0.837,0.529,1.056,0.743,0.338,0.592,0.558,�k�k��,1.5,��
2022/11/01,18:30,0.585,0.836,0.528,1.057,0.743,0.338,0.592,0.560,�k�k��,0.9,��
2022/11/01,18:40,0.585,0.836,0.527,1.056,0.743,0.338,0.593,0.559,�k�k��,0.6,��
2022/11/01,18:50,0.586,0.838,0.528,1.056,0.741,0.338,0.593,0.560,�k,0.9,��
2022/11/01,19:00,0.586,0.837,0.528,1.055,0.743,0.339,0.593,0.558,�k�k��,0.9,��
2022/11/01,19:10,0.585,0.837,0.530,1.057,0.744,0.338,0.593,0.559,�k��,2.0,��
2022/11/01,19:20,0.587,0.838,0.526,1.058,0.744,0.337,0.592,0.561,�k�k��,2.5,��
2022/11/01,19:30,0.586,0.838,0.527,1.057,0.742,0.339,0.594,0.558,�k�k��,1.7,��
2022/11/01,19:40,0.586,0.838,0.526,1.057,0.743,0.338,0.591,0.559,�k��,1.7,��
2022/11/01,19:50,0.586,0.839,0.527,1.055,0.743,0.338,0.593,0.559,�k�k��,2.0,��
2022/11/01,20:00,0.586,0.839,0.529,1.057,0.743,0.337,0.593,0.561,�k��,2.5,��
2022/11/01,20:10,0.585,0.838,0.528,1.056,0.743,0.338,0.592,0.558,�k��,0.9,��
2022/11/01,20:20,0.586,0.837,0.529,1.054,0.745,0.339,0.593,0.559,-,CALM,��
2022/11/01,20:30,0.586,0.837,0.528,1.056,0.741,0.339,0.592,0.559,-,CALM,��
2022/11/01,20:40,0.587,0.838,0.529,1.057,0.742,0.338,0.592,0.559,�k�k��,1.5,��
2022/11/01,20:50,0.588,0.837,0.527,1.056,0.745,0.338,0.593,0.560,�k�k��,1.5,��
2022/11/01,21:00,0.587,0.837,0.527,1.054,0.743,0.338,0.593,0.559,-,CALM,��
2022/11/01,21:10,0.586,0.840,0.528,1.059,0.743,0.339,0.592,0.558,�k��,0.6,��
2022/11/01,21:20,0.586,0.837,0.527,1.057,0.743,0.338,0.593,0.559,�k�k��,0.9,�L
2022/11/01,21:30,0.586,0.836,0.527,1.059,0.743,0.339,0.593,0.558,�k��,0.8,��
2022/11/01,21:40,0.586,0.837,0.528,1.058,0.742,0.338,0.593,0.558,-,CALM,��
2022/11/01,21:50,0.586,0.836,0.528,1.056,0.743,0.338,0.590,0.561,-,CALM,��
2022/11/01,22:00,0.586,0.837,0.526,1.057,0.742,0.338,0.595,0.559,-,CALM,��
2022/11/01,22:10,0.586,0.837,0.528,1.056,0.743,0.338,0.592,0.558,��,1.2,��
2022/11/01,22:20,0.584,0.838,0.528,1.057,0.741,0.339,0.592,0.560,��,1.5,��
2022/11/01,22:30,0.586,0.839,0.525,1.057,0.742,0.337,0.591,0.559,��,2.0,��
2022/11/01,22:40,0.587,0.838,0.528,1.055,0.744,0.340,0.593,0.561,��,2.2,�L
2022/11/01,22:50,0.586,0.836,0.527,1.058,0.743,0.339,0.592,0.559,��,2.9,�L
2022/11/01,23:00,0.588,0.838,0.527,1.056,0.744,0.338,0.593,0.559,��,3.8,�L
2022/11/01,23:10,0.586,0.838,0.527,1.058,0.744,0.339,0.593,0.559,��,4.2,�L
2022/11/01,23:20,0.587,0.840,0.528,1.058,0.744,0.340,0.593,0.561,��,4.8,�L
2022/11/01,23:30,0.586,0.837,0.529,1.060,0.744,0.340,0.593,0.560,��,5.9,�L
2022/11/01,23:40,0.588,0.838,0.529,1.056,0.742,0.339,0.593,0.558,��,6.7,�L
2022/11/01,23:50,0.587,0.837,0.529,1.057,0.743,0.340,0.594,0.559,��,6.5,�L
